Coatesville, PA

7:15 PM EST on January 18, 2018 (GMT -0500)
Chester County Carlson

Weather History for KMQS - February, 2014

Change the Weather History Date:

Monday, February 10, 2014

  Actual Average (KILG) Record (KILG)
Temperature  
Mean Temperature 22 °F -  
Max Temperature 28 °F 40 °F 63 °F (1990)
Min Temperature 17 °F 20 °F -2 °F (1979)
Degree Days  
Heating Degree Days 42    
Moisture  
Dew Point 10 °F    
Average Humidity 63    
Maximum Humidity 100    
Minimum Humidity 43    
Precipitation  
Precipitation 0.00 in - - ()
Sea Level Pressure  
Sea Level Pressure 30.18 in    
Wind  
Wind Speed 9 mph (NW)    
Max Wind Speed 15 mph    
Max Gust Speed 20 mph    
Visibility 9 miles    
Events      
Averages and records for this station are not official NWS values.
T = Trace of Precipitation, MM = Missing Value Source: NWS Daily Summary

Daily Weather History Graph

Daily Weather History Graph

Search for Another Location

Airport or City:

Trip Planner

Search our weather history database for the weather conditions in past years. The results will help you decide how hot, cold, wet, or windy it might be!

Date:

Astronomy

Feb. 10, 2014 Rise Set
Actual Time 7:02 AM EST 5:33 PM EST
Civil Twilight 6:34 AM EST 6:01 PM EST
Nautical Twilight 6:02 AM EST 6:33 PM EST
Astronomical Twilight 5:31 AM EST 7:05 PM EST
Moon 2:00 PM EST (2/10) 3:53 AM EST (2/10)
Length of Visible Light 11h 27m
Length of Day
10h 31m
Waxing Gibbous, 84% of the Moon is Illuminated
Feb 10
Waxing Gibbous
Feb 14
Full
Feb 22
Last Quarter
Mar 1
New
Mar 8
First Quarter

Hourly Weather History & Observations

Time (EST) Temp. Windchill Dew Point Humidity Pressure Visibility Wind Dir Wind Speed Gust Speed Precip Events Conditions
12:15 AM 21.2 °F 12.6 °F 21.2 °F 100% 30.04 in 2.5 mi WNW 6.9 mph - N/A   Mist
12:35 AM 21.2 °F 13.6 °F 21.2 °F 100% 30.04 in 2.0 mi WNW 5.8 mph - N/A   Mist
12:55 AM - - - N/A% 30.04 in 3.0 mi WNW 10.4 mph - N/A   Mist
1:15 AM 23.0 °F 13.1 °F 23.0 °F 100% 30.04 in 4.0 mi WNW 9.2 mph - N/A   Mist
1:35 AM 23.0 °F 15.8 °F 21.2 °F 93% 30.04 in 3.0 mi WNW 5.8 mph - N/A   Mist
1:55 AM 23.0 °F 13.9 °F 23.0 °F 100% 30.04 in 4.0 mi NW 8.1 mph - N/A   Mist
2:15 AM 23.0 °F 13.1 °F 21.2 °F 93% 30.05 in 5.0 mi NW 9.2 mph - N/A   Mist
2:35 AM 24.8 °F 16.9 °F 21.2 °F 86% 30.06 in 6.0 mi NW 6.9 mph - N/A   Mist
2:55 AM 24.8 °F 16.9 °F 21.2 °F 86% 30.06 in 7.0 mi NW 6.9 mph - N/A   Unknown
3:15 AM 23.0 °F 14.7 °F 19.4 °F 86% 30.07 in 7.0 mi NNW 6.9 mph - N/A   Unknown
3:35 AM 23.0 °F 13.1 °F 17.6 °F 80% 30.07 in 10.0 mi NW 9.2 mph - N/A   Unknown
3:55 AM 23.0 °F 14.7 °F 15.8 °F 74% 30.07 in 10.0 mi NNW 6.9 mph - N/A   Unknown
4:15 AM 23.0 °F 13.9 °F 14.0 °F 68% 30.08 in 10.0 mi NW 8.1 mph - N/A   Unknown
4:35 AM 19.4 °F 10.4 °F 14.0 °F 80% 30.11 in 10.0 mi WNW 6.9 mph - N/A   Unknown
4:55 AM 21.2 °F 10.9 °F 12.2 °F 68% 30.12 in 10.0 mi WNW 9.2 mph - N/A   Unknown
5:15 AM 19.4 °F 7.2 °F 12.2 °F 74% 30.13 in 10.0 mi WNW 11.5 mph - N/A   Unknown
5:35 AM 19.4 °F 9.5 °F 10.4 °F 68% 30.14 in 10.0 mi WNW 8.1 mph - N/A   Unknown
5:55 AM 19.4 °F 7.9 °F 10.4 °F 68% 30.14 in 10.0 mi NW 10.4 mph - N/A   Unknown
6:15 AM 19.4 °F 7.9 °F 10.4 °F 68% 30.15 in 10.0 mi NW 10.4 mph - N/A   Unknown
6:35 AM 19.4 °F 7.9 °F 10.4 °F 68% 30.15 in 10.0 mi WNW 10.4 mph - N/A   Unknown
6:55 AM 17.6 °F 3.7 °F 8.6 °F 68% 30.16 in 10.0 mi NW 13.8 mph - N/A   Unknown
7:15 AM 17.6 °F 5.7 °F 8.6 °F 68% 30.17 in 10.0 mi WNW 10.4 mph - N/A   Unknown
7:35 AM 17.6 °F 6.4 °F 8.6 °F 68% 30.19 in 10.0 mi WNW 9.2 mph - N/A   Unknown
7:55 AM 17.6 °F 5.0 °F 8.6 °F 68% 30.20 in 10.0 mi WNW 11.5 mph - N/A   Unknown
8:15 AM 19.4 °F 7.9 °F 8.6 °F 63% 30.20 in 10.0 mi NW 10.4 mph - N/A   Unknown
8:35 AM 19.4 °F 7.2 °F 8.6 °F 63% 30.20 in 10.0 mi NW 11.5 mph - N/A   Unknown
8:55 AM 19.4 °F 6.6 °F 8.6 °F 63% 30.20 in 10.0 mi NW 12.7 mph - N/A   Unknown
9:15 AM 21.2 °F 9.5 °F 10.4 °F 63% 30.20 in 10.0 mi NW 11.5 mph - N/A   Unknown
9:35 AM 21.2 °F 8.3 °F 8.6 °F 58% 30.20 in 10.0 mi NW 13.8 mph - N/A   Unknown
9:55 AM 23.0 °F 11.7 °F 8.6 °F 54% 30.21 in 10.0 mi NW 11.5 mph - N/A   Unknown
10:15 AM 23.0 °F 11.1 °F 8.6 °F 54% 30.21 in 10.0 mi NW 12.7 mph - N/A   Unknown
10:35 AM 23.0 °F 11.1 °F 8.6 °F 54% 30.21 in 10.0 mi WNW 12.7 mph - N/A   Unknown
10:55 AM - - - N/A% - - North - - N/A   Unknown
11:15 AM 24.8 °F 14.0 °F 8.6 °F 50% 30.21 in 10.0 mi WNW 11.5 mph - N/A   Unknown
11:35 AM 26.6 °F 16.2 °F 10.4 °F 51% 30.20 in 10.0 mi NW 11.5 mph 16.1 mph N/A   Clear
11:55 AM 26.6 °F 16.8 °F 10.4 °F 51% 30.19 in 10.0 mi NW 10.4 mph - N/A   Clear
12:15 PM 26.6 °F 17.5 °F 10.4 °F 51% 30.19 in 10.0 mi NW 9.2 mph - N/A   Clear
12:35 PM 26.6 °F 16.8 °F 8.6 °F 47% 30.19 in 10.0 mi NW 10.4 mph - N/A   Clear
12:55 PM 26.6 °F 14.7 °F 8.6 °F 47% 30.18 in 10.0 mi NW 15.0 mph 19.6 mph N/A   Clear
1:15 PM 26.6 °F 15.2 °F 8.6 °F 47% 30.17 in 10.0 mi NW 13.8 mph 18.4 mph N/A   Clear
1:35 PM 28.4 °F 19.1 °F 8.6 °F 43% 30.17 in 10.0 mi NW 10.4 mph - N/A   Clear
1:55 PM 26.6 °F 14.7 °F 10.4 °F 51% 30.16 in 10.0 mi NW 15.0 mph 18.4 mph N/A   Clear
2:15 PM 26.6 °F 16.8 °F 10.4 °F 51% 30.16 in 10.0 mi WNW 10.4 mph - N/A   Clear
2:35 PM 26.6 °F 15.2 °F 10.4 °F 51% 30.16 in 10.0 mi WNW 13.8 mph - N/A   Clear
2:55 PM 26.6 °F 15.2 °F 8.6 °F 47% 30.16 in 10.0 mi NW 13.8 mph 19.6 mph N/A   Clear
3:15 PM 26.6 °F 16.2 °F 10.4 °F 51% 30.17 in 10.0 mi WNW 11.5 mph - N/A   Clear
3:35 PM 26.6 °F 15.7 °F 10.4 °F 51% 30.17 in 10.0 mi WNW 12.7 mph 18.4 mph N/A   Clear
3:55 PM 26.6 °F 15.2 °F 8.6 °F 47% 30.18 in 10.0 mi NW 13.8 mph 17.3 mph N/A   Clear
4:15 PM 26.6 °F 16.8 °F 8.6 °F 47% 30.18 in 10.0 mi WNW 10.4 mph - N/A   Clear
4:35 PM 24.8 °F 15.3 °F 8.6 °F 50% 30.19 in 10.0 mi NW 9.2 mph - N/A   Clear
4:55 PM 23.0 °F 13.1 °F 8.6 °F 54% 30.20 in 10.0 mi WNW 9.2 mph - N/A   Clear
5:15 PM 23.0 °F 13.1 °F 8.6 °F 54% 30.21 in 10.0 mi NW 9.2 mph - N/A   Clear
5:35 PM 23.0 °F 14.7 °F 8.6 °F 54% 30.22 in 10.0 mi NW 6.9 mph - N/A   Clear
5:55 PM 21.2 °F 13.6 °F 6.8 °F 54% 30.22 in 10.0 mi NW 5.8 mph - N/A   Clear
6:15 PM 21.2 °F 12.6 °F 6.8 °F 54% 30.22 in 10.0 mi NW 6.9 mph - N/A   Clear
6:35 PM 19.4 °F 11.5 °F 5.0 °F 54% 30.23 in 10.0 mi NW 5.8 mph - N/A   Clear
6:55 PM 19.4 °F 10.4 °F 5.0 °F 54% 30.24 in 10.0 mi NW 6.9 mph - N/A   Clear
7:15 PM 19.4 °F 11.5 °F 5.0 °F 54% 30.24 in 10.0 mi NW 5.8 mph - N/A   Clear
7:35 PM 19.4 °F 11.5 °F 6.8 °F 58% 30.25 in 10.0 mi WNW 5.8 mph - N/A   Clear
7:55 PM 19.4 °F 11.5 °F 6.8 °F 58% 30.25 in 10.0 mi WNW 5.8 mph - N/A   Clear
8:15 PM 17.6 °F 8.2 °F 6.8 °F 63% 30.25 in 10.0 mi NW 6.9 mph - N/A   Clear
8:35 PM 17.6 °F 8.2 °F 6.8 °F 63% 30.25 in 10.0 mi NW 6.9 mph - N/A   Clear
8:55 PM 17.6 °F 9.3 °F 6.8 °F 63% 30.26 in 10.0 mi NW 5.8 mph - N/A   Clear
9:15 PM 17.6 °F 10.7 °F 5.0 °F 58% 30.27 in 10.0 mi NW 4.6 mph - N/A   Clear
9:35 PM 17.6 °F 7.3 °F 5.0 °F 58% 30.27 in 10.0 mi NW 8.1 mph - N/A   Clear
9:55 PM 17.6 °F 7.3 °F 5.0 °F 58% 30.27 in 10.0 mi NW 8.1 mph - N/A   Clear
10:15 PM 19.4 °F 9.5 °F 6.8 °F 58% 30.27 in 10.0 mi NW 8.1 mph - N/A   Clear
10:35 PM 17.6 °F 5.7 °F 6.8 °F 63% 30.27 in 10.0 mi NW 10.4 mph - N/A   Clear
10:55 PM 17.6 °F 8.2 °F 5.0 °F 58% 30.28 in 10.0 mi NW 6.9 mph - N/A   Clear
11:15 PM 17.6 °F 8.2 °F 5.0 °F 58% 30.29 in 10.0 mi WNW 6.9 mph - N/A   Clear
11:35 PM 17.6 °F 9.3 °F 6.8 °F 63% 30.29 in 10.0 mi West 5.8 mph - N/A   Clear
11:55 PM 17.6 °F 8.2 °F 6.8 °F 63% 30.30 in 10.0 mi West 6.9 mph - N/A   Clear